Time,TemperatureF,DewpointF,PressureIn,WindDirection,WindDirectionDegrees,WindSpeedMPH,WindSpeedGustMPH,Humidity,HourlyPrecipIn,Conditions,Clouds,dailyrainin,SoftwareType,DateUTC
2013-04-06 00:02:00,45.0,36.0,26.85,South,180,3.0,5.0,71,0.00,,,0.00,Rainwise IP-100,2013-04-06 06:02:00,
2013-04-06 00:07:00,45.0,36.0,26.85,SW,225,0.0,6.0,70,0.00,,,0.00,Rainwise IP-100,2013-04-06 06:07:00,
2013-04-06 00:12:00,44.0,36.0,26.85,WSW,247,3.0,5.0,71,0.00,,,0.00,Rainwise IP-100,2013-04-06 06:12:00,
2013-04-06 00:17:00,44.0,35.0,26.85,SW,225,4.0,5.0,70,0.00,,,0.00,Rainwise IP-100,2013-04-06 06:17:00,
2013-04-06 00:22:00,44.0,36.0,26.85,WSW,247,0.0,6.0,71,0.00,,,0.00,Rainwise IP-100,2013-04-06 06:22:00,
2013-04-06 00:27:00,44.0,36.0,26.85,South,180,4.0,4.0,72,0.00,,,0.00,Rainwise IP-100,2013-04-06 06:27:00,
2013-04-06 00:32:00,44.0,36.0,26.86,SSW,202,4.0,9.0,71,0.00,,,0.00,Rainwise IP-100,2013-04-06 06:32:00,
2013-04-06 00:37:00,44.0,36.0,26.86,South,180,4.0,6.0,71,0.00,,,0.00,Rainwise IP-100,2013-04-06 06:37:00,
2013-04-06 00:42:00,44.0,36.0,26.85,ESE,112,0.0,4.0,71,0.00,,,0.00,Rainwise IP-100,2013-04-06 06:42:00,
2013-04-06 00:47:00,44.0,36.0,26.85,WSW,247,0.0,5.0,72,0.00,,,0.00,Rainwise IP-100,2013-04-06 06:47:00,
2013-04-06 00:52:00,44.0,36.0,26.86,SSW,202,1.0,3.0,72,0.00,,,0.00,Rainwise IP-100,2013-04-06 06:52:00,
2013-04-06 00:57:00,44.0,36.0,26.86,ESE,112,0.0,4.0,72,0.00,,,0.00,Rainwise IP-100,2013-04-06 06:57:00,
2013-04-06 01:02:00,44.0,36.0,26.85,WSW,247,2.0,7.0,72,0.00,,,0.00,Rainwise IP-100,2013-04-06 07:02:00,
2013-04-06 01:07:00,44.0,36.0,26.85,West,270,4.0,7.0,72,0.00,,,0.00,Rainwise IP-100,2013-04-06 07:07:00,
2013-04-06 01:12:00,44.0,36.0,26.84,WSW,247,2.0,6.0,72,0.00,,,0.00,Rainwise IP-100,2013-04-06 07:12:00,
2013-04-06 01:17:00,44.0,36.0,26.84,WSW,247,2.0,5.0,72,0.00,,,0.00,Rainwise IP-100,2013-04-06 07:17:00,
2013-04-06 01:22:00,44.0,36.0,26.84,WSW,247,0.0,4.0,74,0.00,,,0.00,Rainwise IP-100,2013-04-06 07:22:00,
2013-04-06 01:27:00,44.0,36.0,26.84,WSW,247,2.0,6.0,74,0.00,,,0.00,Rainwise IP-100,2013-04-06 07:27:00,
2013-04-06 01:32:00,44.0,36.0,26.85,SW,225,0.0,5.0,74,0.00,,,0.00,Rainwise IP-100,2013-04-06 07:32:00,
2013-04-06 01:37:00,44.0,37.0,26.85,SW,225,0.0,3.0,75,0.00,,,0.00,Rainwise IP-100,2013-04-06 07:37:00,
2013-04-06 01:42:00,44.0,37.0,26.85,ESE,112,1.0,3.0,76,0.00,,,0.00,Rainwise IP-100,2013-04-06 07:42:00,
2013-04-06 01:47:00,44.0,37.0,26.85,ENE,67,1.0,4.0,75,0.00,,,0.00,Rainwise IP-100,2013-04-06 07:47:00,
2013-04-06 01:52:00,44.0,37.0,26.85,ENE,67,2.0,3.0,75,0.00,,,0.00,Rainwise IP-100,2013-04-06 07:52:00,
2013-04-06 01:57:00,44.0,36.0,26.85,ENE,67,1.0,3.0,74,0.00,,,0.00,Rainwise IP-100,2013-04-06 07:57:00,
2013-04-06 02:02:00,44.0,37.0,26.85,ENE,67,2.0,2.0,76,0.00,,,0.00,Rainwise IP-100,2013-04-06 08:02:00,
2013-04-06 02:07:00,44.0,37.0,26.85,ENE,67,0.0,3.0,76,0.00,,,0.00,Rainwise IP-100,2013-04-06 08:07:00,
2013-04-06 02:12:00,43.0,36.0,26.85,ENE,67,0.0,0.0,75,0.00,,,0.00,Rainwise IP-100,2013-04-06 08:12:00,
2013-04-06 02:17:00,43.0,36.0,26.85,ENE,67,0.0,0.0,75,0.00,,,0.00,Rainwise IP-100,2013-04-06 08:17:00,
2013-04-06 02:22:00,43.0,36.0,26.85,ENE,67,0.0,0.0,76,0.00,,,0.00,Rainwise IP-100,2013-04-06 08:22:00,
2013-04-06 02:27:00,43.0,36.0,26.85,ENE,67,0.0,0.0,76,0.00,,,0.00,Rainwise IP-100,2013-04-06 08:27:00,
2013-04-06 02:32:00,43.0,36.0,26.85,ENE,67,0.0,0.0,76,0.00,,,0.00,Rainwise IP-100,2013-04-06 08:32:00,
2013-04-06 02:37:00,42.0,36.0,26.85,ENE,67,0.0,0.0,77,0.00,,,0.00,Rainwise IP-100,2013-04-06 08:37:00,
2013-04-06 02:42:00,42.0,36.0,26.85,ENE,67,0.0,0.0,77,0.00,,,0.00,Rainwise IP-100,2013-04-06 08:42:00,
2013-04-06 02:47:00,42.0,36.0,26.85,ENE,67,2.0,3.0,77,0.00,,,0.00,Rainwise IP-100,2013-04-06 08:47:00,
2013-04-06 02:52:00,43.0,37.0,26.85,ENE,67,0.0,3.0,77,0.00,,,0.00,Rainwise IP-100,2013-04-06 08:52:00,
2013-04-06 02:57:00,42.0,36.0,26.85,ENE,67,0.0,0.0,76,0.00,,,0.00,Rainwise IP-100,2013-04-06 08:57:00,
2013-04-06 03:02:00,43.0,37.0,26.85,SSE,157,1.0,4.0,77,0.00,,,0.00,Rainwise IP-100,2013-04-06 09:02:00,
2013-04-06 03:08:00,43.0,37.0,26.85,ENE,67,1.0,4.0,77,0.00,,,0.00,Rainwise IP-100,2013-04-06 09:08:00,
2013-04-06 03:13:00,43.0,37.0,26.84,East,90,2.0,3.0,77,0.00,,,0.00,Rainwise IP-100,2013-04-06 09:13:00,
2013-04-06 03:18:00,43.0,37.0,26.84,ESE,112,0.0,3.0,77,0.00,,,0.00,Rainwise IP-100,2013-04-06 09:18:00,
2013-04-06 03:23:00,43.0,36.0,26.84,East,90,2.0,4.0,76,0.00,,,0.00,Rainwise IP-100,2013-04-06 09:23:00,
2013-04-06 03:28:00,43.0,36.0,26.84,East,90,2.0,3.0,76,0.00,,,0.00,Rainwise IP-100,2013-04-06 09:28:00,
2013-04-06 03:33:00,43.0,36.0,26.83,East,90,0.0,2.0,76,0.00,,,0.00,Rainwise IP-100,2013-04-06 09:33:00,
2013-04-06 03:38:00,43.0,36.0,26.83,East,90,0.0,1.0,76,0.00,,,0.00,Rainwise IP-100,2013-04-06 09:38:00,
2013-04-06 03:43:00,43.0,37.0,26.83,SE,135,0.0,2.0,77,0.00,,,0.00,Rainwise IP-100,2013-04-06 09:43:00,
2013-04-06 03:48:00,42.0,36.0,26.83,SE,135,0.0,0.0,76,0.00,,,0.00,Rainwise IP-100,2013-04-06 09:48:00,
2013-04-06 03:53:00,42.0,36.0,26.83,ENE,67,3.0,4.0,76,0.00,,,0.00,Rainwise IP-100,2013-04-06 09:53:00,
2013-04-06 03:58:00,42.0,36.0,26.83,ENE,67,1.0,4.0,76,0.00,,,0.00,Rainwise IP-100,2013-04-06 09:58:00,
2013-04-06 04:03:00,42.0,36.0,26.83,ENE,67,0.0,2.0,76,0.00,,,0.00,Rainwise IP-100,2013-04-06 10:03:00,
2013-04-06 04:08:00,42.0,36.0,26.83,East,90,1.0,0.0,77,0.00,,,0.00,Rainwise IP-100,2013-04-06 10:08:00,
2013-04-06 04:13:00,42.0,36.0,26.83,East,90,1.0,3.0,78,0.00,,,0.00,Rainwise IP-100,2013-04-06 10:13:00,
2013-04-06 04:18:00,42.0,36.0,26.83,ESE,112,0.0,2.0,77,0.00,,,0.00,Rainwise IP-100,2013-04-06 10:18:00,
2013-04-06 04:23:00,43.0,37.0,26.83,ESE,112,1.0,2.0,79,0.00,,,0.00,Rainwise IP-100,2013-04-06 10:23:00,
2013-04-06 04:28:00,43.0,37.0,26.83,ENE,67,5.0,7.0,79,0.00,,,0.00,Rainwise IP-100,2013-04-06 10:28:00,
2013-04-06 04:33:00,43.0,37.0,26.82,ENE,67,3.0,6.0,79,0.00,,,0.00,Rainwise IP-100,2013-04-06 10:33:00,
2013-04-06 04:38:00,43.0,37.0,26.82,East,90,0.0,6.0,78,0.00,,,0.00,Rainwise IP-100,2013-04-06 10:38:00,
2013-04-06 04:43:00,42.0,36.0,26.82,NE,45,2.0,6.0,77,0.00,,,0.00,Rainwise IP-100,2013-04-06 10:43:00,
2013-04-06 04:48:00,42.0,36.0,26.82,ENE,67,4.0,6.0,78,0.00,,,0.00,Rainwise IP-100,2013-04-06 10:48:00,
2013-04-06 04:53:00,42.0,36.0,26.82,ENE,67,5.0,7.0,78,0.00,,,0.00,Rainwise IP-100,2013-04-06 10:53:00,
2013-04-06 04:58:00,43.0,37.0,26.82,NNE,22,1.0,6.0,79,0.00,,,0.00,Rainwise IP-100,2013-04-06 10:58:00,
2013-04-06 05:03:00,43.0,37.0,26.82,ENE,67,2.0,5.0,78,0.00,,,0.00,Rainwise IP-100,2013-04-06 11:03:00,
2013-04-06 05:08:00,43.0,37.0,26.82,ENE,67,1.0,4.0,79,0.00,,,0.00,Rainwise IP-100,2013-04-06 11:08:00,
2013-04-06 05:13:00,43.0,37.0,26.81,ENE,67,3.0,4.0,79,0.00,,,0.00,Rainwise IP-100,2013-04-06 11:13:00,
2013-04-06 05:18:00,43.0,37.0,26.81,ENE,67,2.0,5.0,79,0.00,,,0.00,Rainwise IP-100,2013-04-06 11:18:00,
2013-04-06 05:23:00,43.0,37.0,26.82,ENE,67,0.0,4.0,79,0.00,,,0.00,Rainwise IP-100,2013-04-06 11:23:00,
2013-04-06 05:28:00,43.0,37.0,26.82,ENE,67,0.0,3.0,80,0.00,,,0.00,Rainwise IP-100,2013-04-06 11:28:00,
2013-04-06 05:33:00,42.0,37.0,26.82,ENE,67,2.0,0.0,80,0.00,,,0.00,Rainwise IP-100,2013-04-06 11:33:00,
2013-04-06 05:34:00,42.0,37.0,26.82,ENE,67,0.0,0.0,80,0.00,,,0.00,Rainwise IP-100,2013-04-06 11:34:00,
2013-04-06 05:39:00,42.0,37.0,26.82,ENE,67,0.0,3.0,80,0.00,,,0.00,Rainwise IP-100,2013-04-06 11:39:00,
2013-04-06 05:44:00,42.0,37.0,26.82,ENE,67,0.0,0.0,83,0.06,,,0.01,Rainwise IP-100,2013-04-06 11:44:00,
2013-04-06 05:49:00,42.0,38.0,26.82,ENE,67,0.0,0.0,84,0.06,,,0.01,Rainwise IP-100,2013-04-06 11:49:00,
2013-04-06 05:54:00,42.0,38.0,26.82,ENE,67,0.0,0.0,86,0.00,,,0.01,Rainwise IP-100,2013-04-06 11:54:00,
2013-04-06 05:59:00,41.0,37.0,26.82,ENE,67,0.0,0.0,86,0.00,,,0.01,Rainwise IP-100,2013-04-06 11:59:00,
2013-04-06 06:04:00,41.0,38.0,26.83,ENE,67,0.0,0.0,88,0.06,,,0.02,Rainwise IP-100,2013-04-06 12:04:00,
2013-04-06 06:09:00,41.0,38.0,26.83,WNW,292,1.0,3.0,89,0.06,,,0.02,Rainwise IP-100,2013-04-06 12:09:00,
2013-04-06 06:14:00,41.0,38.0,26.83,WNW,292,0.0,4.0,89,0.00,,,0.02,Rainwise IP-100,2013-04-06 12:14:00,
2013-04-06 06:19:00,41.0,39.0,26.83,WNW,292,0.0,0.0,91,0.00,,,0.02,Rainwise IP-100,2013-04-06 12:19:00,
2013-04-06 06:24:00,41.0,39.0,26.83,WNW,292,0.0,1.0,91,0.00,,,0.02,Rainwise IP-100,2013-04-06 12:24:00,
2013-04-06 06:29:00,41.0,38.0,26.83,WNW,292,3.0,0.0,89,0.06,,,0.03,Rainwise IP-100,2013-04-06 12:29:00,
2013-04-06 06:34:00,41.0,38.0,26.83,West,270,4.0,5.0,90,0.06,,,0.03,Rainwise IP-100,2013-04-06 12:34:00,
2013-04-06 06:39:00,41.0,39.0,26.83,NW,315,4.0,6.0,92,0.00,,,0.03,Rainwise IP-100,2013-04-06 12:39:00,
2013-04-06 06:44:00,41.0,39.0,26.83,NNW,337,3.0,6.0,93,0.00,,,0.03,Rainwise IP-100,2013-04-06 12:44:00,
2013-04-06 06:49:00,40.0,38.0,26.83,West,270,2.0,6.0,92,0.00,,,0.03,Rainwise IP-100,2013-04-06 12:49:00,
2013-04-06 06:54:00,40.0,38.0,26.83,NW,315,2.0,6.0,92,0.00,,,0.03,Rainwise IP-100,2013-04-06 12:54:00,
2013-04-06 06:59:00,40.0,38.0,26.83,WNW,292,2.0,5.0,92,0.00,,,0.03,Rainwise IP-100,2013-04-06 12:59:00,
2013-04-06 07:04:00,40.0,38.0,26.84,WNW,292,2.0,5.0,92,0.00,,,0.03,Rainwise IP-100,2013-04-06 13:04:00,
2013-04-06 07:09:00,40.0,38.0,26.84,WNW,292,3.0,3.0,93,0.00,,,0.03,Rainwise IP-100,2013-04-06 13:09:00,
2013-04-06 07:14:00,40.0,38.0,26.84,West,270,0.0,3.0,93,0.00,,,0.03,Rainwise IP-100,2013-04-06 13:14:00,
2013-04-06 07:19:00,40.0,39.0,26.84,West,270,0.0,2.0,94,0.00,,,0.03,Rainwise IP-100,2013-04-06 13:19:00,
2013-04-06 07:24:00,40.0,38.0,26.84,West,270,1.0,3.0,93,0.00,,,0.03,Rainwise IP-100,2013-04-06 13:24:00,
2013-04-06 07:29:00,40.0,38.0,26.84,SSW,202,0.0,2.0,93,0.00,,,0.03,Rainwise IP-100,2013-04-06 13:29:00,
2013-04-06 07:34:00,40.0,39.0,26.84,SSE,157,2.0,6.0,94,0.00,,,0.03,Rainwise IP-100,2013-04-06 13:34:00,
2013-04-06 07:39:00,41.0,39.0,26.84,South,180,2.0,5.0,94,0.00,,,0.03,Rainwise IP-100,2013-04-06 13:39:00,
2013-04-06 07:44:00,41.0,39.0,26.83,South,180,3.0,6.0,94,0.00,,,0.03,Rainwise IP-100,2013-04-06 13:44:00,
2013-04-06 07:49:00,41.0,39.0,26.83,South,180,3.0,4.0,94,0.00,,,0.03,Rainwise IP-100,2013-04-06 13:49:00,
2013-04-06 07:54:00,41.0,40.0,26.84,South,180,5.0,6.0,95,0.00,,,0.03,Rainwise IP-100,2013-04-06 13:54:00,
2013-04-06 07:59:00,41.0,40.0,26.84,SE,135,2.0,6.0,95,0.06,,,0.04,Rainwise IP-100,2013-04-06 13:59:00,
2013-04-06 08:04:00,41.0,40.0,26.84,SSW,202,0.0,6.0,95,0.06,,,0.04,Rainwise IP-100,2013-04-06 14:04:00,
2013-04-06 08:09:00,41.0,40.0,26.84,SSW,202,0.0,2.0,95,0.00,,,0.04,Rainwise IP-100,2013-04-06 14:09:00,
2013-04-06 08:14:00,41.0,40.0,26.84,SSW,202,2.0,3.0,95,0.00,,,0.04,Rainwise IP-100,2013-04-06 14:14:00,
2013-04-06 08:19:00,41.0,40.0,26.84,SSW,202,0.0,4.0,95,0.00,,,0.04,Rainwise IP-100,2013-04-06 14:19:00,
2013-04-06 08:24:00,41.0,40.0,26.84,SW,225,0.0,1.0,95,0.00,,,0.04,Rainwise IP-100,2013-04-06 14:24:00,
2013-04-06 08:29:00,41.0,40.0,26.84,SW,225,0.0,2.0,95,0.00,,,0.04,Rainwise IP-100,2013-04-06 14:29:00,
2013-04-06 08:34:00,41.0,40.0,26.83,SSW,202,2.0,3.0,95,0.00,,,0.04,Rainwise IP-100,2013-04-06 14:34:00,
2013-04-06 08:39:00,42.0,41.0,26.83,SSW,202,0.0,3.0,95,0.00,,,0.04,Rainwise IP-100,2013-04-06 14:39:00,
2013-04-06 08:44:00,41.0,39.0,26.83,SE,135,0.0,3.0,94,0.00,,,0.04,Rainwise IP-100,2013-04-06 14:44:00,
2013-04-06 08:49:00,42.0,41.0,26.83,SE,135,2.0,4.0,95,0.00,,,0.04,Rainwise IP-100,2013-04-06 14:49:00,
2013-04-06 08:54:00,42.0,41.0,26.83,East,90,2.0,3.0,95,0.00,,,0.04,Rainwise IP-100,2013-04-06 14:54:00,
2013-04-06 08:59:00,42.0,41.0,26.83,North,360,2.0,3.0,95,0.00,,,0.04,Rainwise IP-100,2013-04-06 14:59:00,
2013-04-06 09:04:00,42.0,41.0,26.83,North,360,1.0,6.0,96,0.00,,,0.04,Rainwise IP-100,2013-04-06 15:04:00,
2013-04-06 09:09:00,43.0,42.0,26.83,North,360,0.0,3.0,95,0.00,,,0.04,Rainwise IP-100,2013-04-06 15:09:00,
2013-04-06 09:14:00,43.0,41.0,26.83,NNE,22,3.0,4.0,94,0.00,,,0.04,Rainwise IP-100,2013-04-06 15:14:00,
2013-04-06 09:19:00,43.0,41.0,26.83,NE,45,2.0,5.0,94,0.00,,,0.04,Rainwise IP-100,2013-04-06 15:19:00,
2013-04-06 09:24:00,43.0,41.0,26.83,ENE,67,2.0,7.0,94,0.00,,,0.04,Rainwise IP-100,2013-04-06 15:24:00,
2013-04-06 09:29:00,43.0,41.0,26.83,ENE,67,4.0,8.0,92,0.00,,,0.04,Rainwise IP-100,2013-04-06 15:29:00,
2013-04-06 09:34:00,43.0,41.0,26.83,SSE,157,3.0,6.0,92,0.00,,,0.04,Rainwise IP-100,2013-04-06 15:34:00,
2013-04-06 09:40:00,44.0,41.0,26.82,ENE,67,6.0,7.0,90,0.00,,,0.04,Rainwise IP-100,2013-04-06 15:40:00,
2013-04-06 09:45:00,44.0,41.0,26.82,ENE,67,6.0,7.0,90,0.00,,,0.04,Rainwise IP-100,2013-04-06 15:45:00,
2013-04-06 09:50:00,44.0,40.0,26.82,NE,45,6.0,8.0,86,0.00,,,0.04,Rainwise IP-100,2013-04-06 15:50:00,
2013-04-06 09:55:00,45.0,41.0,26.82,NE,45,3.0,7.0,87,0.00,,,0.04,Rainwise IP-100,2013-04-06 15:55:00,
2013-04-06 10:00:00,45.0,41.0,26.81,East,90,3.0,4.0,87,0.06,,,0.05,Rainwise IP-100,2013-04-06 16:00:00,
2013-04-06 10:05:00,46.0,42.0,26.81,East,90,0.0,6.0,86,0.06,,,0.05,Rainwise IP-100,2013-04-06 16:05:00,
2013-04-06 10:10:00,46.0,40.0,26.81,ENE,67,3.0,5.0,82,0.00,,,0.05,Rainwise IP-100,2013-04-06 16:10:00,
2013-04-06 10:15:00,46.0,40.0,26.81,NE,45,3.0,6.0,81,0.00,,,0.05,Rainwise IP-100,2013-04-06 16:15:00,
2013-04-06 10:20:00,46.0,40.0,26.80,ESE,112,0.0,5.0,80,0.00,,,0.05,Rainwise IP-100,2013-04-06 16:20:00,
2013-04-06 10:25:00,47.0,40.0,26.80,ENE,67,5.0,7.0,79,0.00,,,0.05,Rainwise IP-100,2013-04-06 16:25:00,
2013-04-06 10:30:00,47.0,40.0,26.80,East,90,0.0,6.0,79,0.00,,,0.05,Rainwise IP-100,2013-04-06 16:30:00,
2013-04-06 10:35:00,47.0,40.0,26.80,ENE,67,3.0,6.0,79,0.00,,,0.05,Rainwise IP-100,2013-04-06 16:35:00,
2013-04-06 10:40:00,47.0,40.0,26.80,NNW,337,5.0,6.0,78,0.00,,,0.05,Rainwise IP-100,2013-04-06 16:40:00,
2013-04-06 10:45:00,48.0,42.0,26.80,NE,45,5.0,6.0,78,0.00,,,0.05,Rainwise IP-100,2013-04-06 16:45:00,
2013-04-06 10:50:00,48.0,42.0,26.79,East,90,2.0,8.0,80,0.00,,,0.05,Rainwise IP-100,2013-04-06 16:50:00,
2013-04-06 10:55:00,47.0,40.0,26.79,ESE,112,0.0,8.0,79,0.00,,,0.05,Rainwise IP-100,2013-04-06 16:55:00,
2013-04-06 11:00:00,48.0,42.0,26.79,NE,45,2.0,7.0,78,0.00,,,0.05,Rainwise IP-100,2013-04-06 17:00:00,
2013-04-06 11:05:00,48.0,42.0,26.79,ENE,67,2.0,7.0,79,0.00,,,0.05,Rainwise IP-100,2013-04-06 17:05:00,
2013-04-06 11:10:00,49.0,41.0,26.79,NE,45,4.0,6.0,75,0.00,,,0.05,Rainwise IP-100,2013-04-06 17:10:00,
2013-04-06 11:15:00,49.0,41.0,26.79,ENE,67,6.0,7.0,75,0.00,,,0.05,Rainwise IP-100,2013-04-06 17:15:00,
2013-04-06 11:20:00,50.0,41.0,26.78,ESE,112,4.0,7.0,73,0.00,,,0.05,Rainwise IP-100,2013-04-06 17:20:00,
2013-04-06 11:25:00,50.0,42.0,26.78,WNW,292,3.0,6.0,74,0.00,,,0.05,Rainwise IP-100,2013-04-06 17:25:00,
2013-04-06 11:30:00,51.0,41.0,26.77,ENE,67,4.0,7.0,68,0.00,,,0.05,Rainwise IP-100,2013-04-06 17:30:00,
2013-04-06 11:35:00,51.0,42.0,26.77,NNE,22,1.0,4.0,71,0.00,,,0.05,Rainwise IP-100,2013-04-06 17:35:00,
2013-04-06 11:40:00,51.0,42.0,26.77,WNW,292,2.0,7.0,70,0.00,,,0.05,Rainwise IP-100,2013-04-06 17:40:00,
2013-04-06 11:45:00,51.0,42.0,26.77,ENE,67,3.0,5.0,71,0.00,,,0.05,Rainwise IP-100,2013-04-06 17:45:00,
2013-04-06 11:50:00,52.0,42.0,26.76,North,360,3.0,6.0,68,0.00,,,0.05,Rainwise IP-100,2013-04-06 17:50:00,
2013-04-06 11:55:00,52.0,41.0,26.76,NE,45,2.0,4.0,67,0.00,,,0.05,Rainwise IP-100,2013-04-06 17:55:00,
2013-04-06 12:00:00,52.0,41.0,26.76,ESE,112,2.0,7.0,66,0.00,,,0.05,Rainwise IP-100,2013-04-06 18:00:00,
2013-04-06 12:05:00,51.0,40.0,26.76,East,90,0.0,7.0,67,0.00,,,0.05,Rainwise IP-100,2013-04-06 18:05:00,
2013-04-06 12:10:00,52.0,41.0,26.75,South,180,1.0,6.0,66,0.00,,,0.05,Rainwise IP-100,2013-04-06 18:10:00,
2013-04-06 12:15:00,51.0,40.0,26.75,SSE,157,3.0,7.0,65,0.00,,,0.05,Rainwise IP-100,2013-04-06 18:15:00,
2013-04-06 12:20:00,52.0,40.0,26.76,WSW,247,0.0,4.0,65,0.00,,,0.05,Rainwise IP-100,2013-04-06 18:20:00,
2013-04-06 12:25:00,52.0,41.0,26.76,ESE,112,0.0,3.0,66,0.00,,,0.05,Rainwise IP-100,2013-04-06 18:25:00,
2013-04-06 12:30:00,53.0,41.0,26.75,North,360,4.0,6.0,66,0.00,,,0.05,Rainwise IP-100,2013-04-06 18:30:00,
2013-04-06 12:35:00,53.0,40.0,26.75,NNE,22,3.0,6.0,63,0.00,,,0.05,Rainwise IP-100,2013-04-06 18:35:00,
2013-04-06 12:40:00,54.0,41.0,26.74,NNW,337,0.0,7.0,61,0.00,,,0.05,Rainwise IP-100,2013-04-06 18:40:00,
2013-04-06 12:45:00,54.0,42.0,26.74,NNW,337,6.0,7.0,65,0.00,,,0.05,Rainwise IP-100,2013-04-06 18:45:00,
2013-04-06 12:50:00,54.0,40.0,26.73,North,360,3.0,7.0,59,0.00,,,0.05,Rainwise IP-100,2013-04-06 18:50:00,
2013-04-06 12:55:00,55.0,42.0,26.73,NNW,337,6.0,7.0,61,0.00,,,0.05,Rainwise IP-100,2013-04-06 18:55:00,
2013-04-06 13:00:00,56.0,41.0,26.72,North,360,6.0,9.0,58,0.00,,,0.05,Rainwise IP-100,2013-04-06 19:00:00,
2013-04-06 13:05:00,54.0,39.0,26.72,NNW,337,5.0,7.0,58,0.00,,,0.05,Rainwise IP-100,2013-04-06 19:05:00,
2013-04-06 13:10:00,54.0,39.0,26.73,NW,315,5.0,7.0,58,0.00,,,0.05,Rainwise IP-100,2013-04-06 19:10:00,
2013-04-06 13:15:00,53.0,38.0,26.73,North,360,9.0,11.0,58,0.00,,,0.05,Rainwise IP-100,2013-04-06 19:15:00,
2013-04-06 13:20:00,53.0,37.0,26.75,SSW,202,7.0,13.0,56,0.00,,,0.05,Rainwise IP-100,2013-04-06 19:20:00,
2013-04-06 13:25:00,48.0,38.0,26.75,West,270,18.0,29.0,68,0.00,,,0.05,Rainwise IP-100,2013-04-06 19:25:00,
2013-04-06 13:30:00,44.0,39.0,26.84,West,270,12.0,23.0,82,0.12,,,0.07,Rainwise IP-100,2013-04-06 19:30:00,
2013-04-06 13:35:00,43.0,39.0,26.84,West,270,11.0,17.0,87,0.24,,,0.09,Rainwise IP-100,2013-04-06 19:35:00,
2013-04-06 13:40:00,43.0,40.0,26.85,WNW,292,4.0,16.0,89,0.24,,,0.11,Rainwise IP-100,2013-04-06 19:40:00,
2013-04-06 13:45:00,42.0,39.0,26.85,NW,315,2.0,7.0,88,0.12,,,0.11,Rainwise IP-100,2013-04-06 19:45:00,
2013-04-06 13:50:00,42.0,38.0,26.85,SW,225,2.0,10.0,86,0.06,,,0.12,Rainwise IP-100,2013-04-06 19:50:00,
2013-04-06 13:55:00,43.0,40.0,26.85,NNE,22,3.0,9.0,90,0.12,,,0.13,Rainwise IP-100,2013-04-06 19:55:00,
2013-04-06 14:00:00,43.0,40.0,26.85,NE,45,6.0,6.0,89,0.06,,,0.13,Rainwise IP-100,2013-04-06 20:00:00,
2013-04-06 14:05:00,43.0,40.0,26.85,South,180,5.0,6.0,89,0.00,,,0.13,Rainwise IP-100,2013-04-06 20:05:00,
2013-04-06 14:10:00,44.0,41.0,26.85,SSE,157,2.0,9.0,89,0.00,,,0.13,Rainwise IP-100,2013-04-06 20:10:00,
2013-04-06 14:15:00,44.0,41.0,26.85,ESE,112,3.0,6.0,89,0.00,,,0.13,Rainwise IP-100,2013-04-06 20:15:00,
2013-04-06 14:20:00,45.0,41.0,26.83,SSW,202,1.0,7.0,88,0.00,,,0.13,Rainwise IP-100,2013-04-06 20:20:00,
2013-04-06 14:25:00,45.0,41.0,26.83,West,270,6.0,6.0,87,0.00,,,0.13,Rainwise IP-100,2013-04-06 20:25:00,
2013-04-06 14:30:00,46.0,40.0,26.83,West,270,4.0,11.0,80,0.00,,,0.13,Rainwise IP-100,2013-04-06 20:30:00,
2013-04-06 14:35:00,47.0,38.0,26.83,WNW,292,6.0,12.0,73,0.00,,,0.13,Rainwise IP-100,2013-04-06 20:35:00,
2013-04-06 14:40:00,47.0,38.0,26.81,NW,315,6.0,9.0,72,0.00,,,0.13,Rainwise IP-100,2013-04-06 20:40:00,
2013-04-06 14:45:00,47.0,40.0,26.81,North,360,0.0,7.0,77,0.00,,,0.13,Rainwise IP-100,2013-04-06 20:45:00,
2013-04-06 14:50:00,48.0,41.0,26.81,WNW,292,7.0,7.0,75,0.00,,,0.13,Rainwise IP-100,2013-04-06 20:50:00,
2013-04-06 14:55:00,48.0,39.0,26.81,WNW,292,2.0,7.0,71,0.00,,,0.13,Rainwise IP-100,2013-04-06 20:55:00,
2013-04-06 15:00:00,48.0,39.0,26.82,WNW,292,5.0,6.0,72,0.00,,,0.13,Rainwise IP-100,2013-04-06 21:00:00,
2013-04-06 15:05:00,48.0,37.0,26.82,WNW,292,6.0,9.0,65,0.00,,,0.13,Rainwise IP-100,2013-04-06 21:05:00,
2013-04-06 15:10:00,48.0,36.0,26.81,WNW,292,6.0,13.0,63,0.00,,,0.13,Rainwise IP-100,2013-04-06 21:10:00,
2013-04-06 15:15:00,48.0,36.0,26.81,WNW,292,6.0,9.0,63,0.00,,,0.13,Rainwise IP-100,2013-04-06 21:15:00,
2013-04-06 15:20:00,49.0,37.0,26.81,West,270,2.0,10.0,62,0.00,,,0.13,Rainwise IP-100,2013-04-06 21:20:00,
2013-04-06 15:25:00,49.0,36.0,26.81,South,180,3.0,10.0,61,0.00,,,0.13,Rainwise IP-100,2013-04-06 21:25:00,
2013-04-06 15:30:00,49.0,36.0,26.81,SW,225,0.0,6.0,61,0.00,,,0.13,Rainwise IP-100,2013-04-06 21:30:00,
2013-04-06 15:35:00,49.0,35.0,26.81,West,270,3.0,9.0,58,0.00,,,0.13,Rainwise IP-100,2013-04-06 21:35:00,
2013-04-06 15:40:00,49.0,35.0,26.81,NW,315,6.0,14.0,58,0.00,,,0.13,Rainwise IP-100,2013-04-06 21:40:00,
2013-04-06 15:45:00,49.0,36.0,26.81,West,270,6.0,10.0,60,0.00,,,0.13,Rainwise IP-100,2013-04-06 21:45:00,
2013-04-06 15:50:00,49.0,35.0,26.81,WSW,247,7.0,10.0,58,0.00,,,0.13,Rainwise IP-100,2013-04-06 21:50:00,
2013-04-06 15:55:00,49.0,36.0,26.81,WSW,247,5.0,9.0,60,0.00,,,0.13,Rainwise IP-100,2013-04-06 21:55:00,
2013-04-06 16:00:00,50.0,37.0,26.80,SW,225,1.0,7.0,60,0.00,,,0.13,Rainwise IP-100,2013-04-06 22:00:00,
2013-04-06 16:05:00,50.0,36.0,26.80,WSW,247,3.0,7.0,58,0.00,,,0.13,Rainwise IP-100,2013-04-06 22:05:00,
2013-04-06 16:10:00,50.0,36.0,26.80,SW,225,3.0,10.0,57,0.00,,,0.13,Rainwise IP-100,2013-04-06 22:10:00,
2013-04-06 16:15:00,50.0,36.0,26.80,SE,135,1.0,12.0,57,0.00,,,0.13,Rainwise IP-100,2013-04-06 22:15:00,
2013-04-06 16:20:00,51.0,37.0,26.79,NW,315,2.0,12.0,57,0.00,,,0.13,Rainwise IP-100,2013-04-06 22:20:00,
2013-04-06 16:25:00,51.0,36.0,26.79,WNW,292,1.0,10.0,55,0.00,,,0.13,Rainwise IP-100,2013-04-06 22:25:00,
2013-04-06 16:30:00,52.0,36.0,26.78,WNW,292,1.0,12.0,53,0.00,,,0.13,Rainwise IP-100,2013-04-06 22:30:00,
2013-04-06 16:35:00,53.0,35.0,26.78,South,180,9.0,16.0,49,0.06,,,0.14,Rainwise IP-100,2013-04-06 22:35:00,
2013-04-06 16:40:00,54.0,35.0,26.77,WSW,247,5.0,15.0,47,0.06,,,0.14,Rainwise IP-100,2013-04-06 22:40:00,
2013-04-06 16:45:00,54.0,33.0,26.77,West,270,5.0,15.0,45,0.00,,,0.14,Rainwise IP-100,2013-04-06 22:45:00,
2013-04-06 16:50:00,54.0,33.0,26.77,WNW,292,6.0,18.0,46,0.00,,,0.14,Rainwise IP-100,2013-04-06 22:50:00,
2013-04-06 16:55:00,54.0,35.0,26.77,WNW,292,8.0,15.0,47,0.00,,,0.14,Rainwise IP-100,2013-04-06 22:55:00,
2013-04-06 17:00:00,54.0,33.0,26.77,West,270,8.0,16.0,45,0.00,,,0.14,Rainwise IP-100,2013-04-06 23:00:00,
2013-04-06 17:05:00,55.0,33.0,26.77,WSW,247,7.0,14.0,44,0.00,,,0.14,Rainwise IP-100,2013-04-06 23:05:00,
2013-04-06 17:10:00,54.0,33.0,26.77,WNW,292,8.0,14.0,45,0.00,,,0.14,Rainwise IP-100,2013-04-06 23:10:00,
2013-04-06 17:15:00,52.0,33.0,26.77,West,270,6.0,16.0,48,0.00,,,0.14,Rainwise IP-100,2013-04-06 23:15:00,
2013-04-06 17:20:00,50.0,36.0,26.79,NNW,337,9.0,15.0,57,0.00,,,0.14,Rainwise IP-100,2013-04-06 23:20:00,
2013-04-06 17:25:00,49.0,37.0,26.79,NW,315,7.0,19.0,62,0.00,,,0.14,Rainwise IP-100,2013-04-06 23:25:00,
2013-04-06 17:30:00,48.0,36.0,26.81,NW,315,9.0,17.0,63,0.00,,,0.14,Rainwise IP-100,2013-04-06 23:30:00,
2013-04-06 17:35:00,48.0,37.0,26.81,NW,315,6.0,17.0,65,0.00,,,0.14,Rainwise IP-100,2013-04-06 23:35:00,
2013-04-06 17:40:00,47.0,36.0,26.82,NNW,337,2.0,19.0,67,0.00,,,0.14,Rainwise IP-100,2013-04-06 23:40:00,
2013-04-06 17:45:00,46.0,37.0,26.82,NNW,337,5.0,9.0,71,0.00,,,0.14,Rainwise IP-100,2013-04-06 23:45:00,
2013-04-06 17:50:00,47.0,35.0,26.83,WNW,292,6.0,13.0,64,0.00,,,0.14,Rainwise IP-100,2013-04-06 23:50:00,
2013-04-06 17:55:00,47.0,35.0,26.83,West,270,13.0,17.0,61,0.00,,,0.14,Rainwise IP-100,2013-04-06 23:55:00,
2013-04-06 18:00:00,47.0,35.0,26.83,West,270,11.0,17.0,62,0.00,,,0.14,Rainwise IP-100,2013-04-07 00:00:00,
2013-04-06 18:05:00,46.0,35.0,26.83,WSW,247,7.0,13.0,63,0.00,,,0.14,Rainwise IP-100,2013-04-07 00:05:00,
2013-04-06 18:10:00,46.0,35.0,26.83,WSW,247,4.0,14.0,66,0.00,,,0.14,Rainwise IP-100,2013-04-07 00:10:00,
2013-04-06 18:15:00,45.0,36.0,26.83,WSW,247,7.0,10.0,70,0.00,,,0.14,Rainwise IP-100,2013-04-07 00:15:00,
2013-04-06 18:20:00,45.0,36.0,26.83,SE,135,0.0,10.0,69,0.00,,,0.14,Rainwise IP-100,2013-04-07 00:20:00,
2013-04-06 18:25:00,46.0,36.0,26.83,ESE,112,8.0,10.0,68,0.00,,,0.14,Rainwise IP-100,2013-04-07 00:25:00,
2013-04-06 18:30:00,46.0,36.0,26.83,WSW,247,1.0,9.0,69,0.00,,,0.14,Rainwise IP-100,2013-04-07 00:30:00,
2013-04-06 18:35:00,46.0,35.0,26.83,SSW,202,6.0,9.0,65,0.00,,,0.14,Rainwise IP-100,2013-04-07 00:35:00,
2013-04-06 18:40:00,47.0,33.0,26.83,SSW,202,4.0,15.0,60,0.00,,,0.14,Rainwise IP-100,2013-04-07 00:40:00,
2013-04-06 18:45:00,46.0,33.0,26.83,SSW,202,9.0,12.0,62,0.00,,,0.14,Rainwise IP-100,2013-04-07 00:45:00,
2013-04-06 18:50:00,46.0,35.0,26.83,South,180,7.0,12.0,63,0.00,,,0.14,Rainwise IP-100,2013-04-07 00:50:00,
2013-04-06 18:55:00,46.0,35.0,26.83,SSW,202,6.0,12.0,64,0.00,,,0.14,Rainwise IP-100,2013-04-07 00:55:00,
2013-04-06 19:00:00,46.0,35.0,26.83,SSE,157,6.0,10.0,65,0.00,,,0.14,Rainwise IP-100,2013-04-07 01:00:00,
2013-04-06 19:05:00,46.0,36.0,26.83,SSE,157,6.0,9.0,68,0.00,,,0.14,Rainwise IP-100,2013-04-07 01:05:00,
2013-04-06 19:10:00,46.0,36.0,26.83,South,180,5.0,10.0,67,0.00,,,0.14,Rainwise IP-100,2013-04-07 01:10:00,
2013-04-06 19:15:00,46.0,35.0,26.83,SSE,157,6.0,10.0,66,0.00,,,0.14,Rainwise IP-100,2013-04-07 01:15:00,
2013-04-06 19:20:00,46.0,33.0,26.83,South,180,9.0,10.0,62,0.00,,,0.14,Rainwise IP-100,2013-04-07 01:20:00,
2013-04-06 19:26:00,46.0,35.0,26.83,SSE,157,3.0,12.0,64,0.00,,,0.14,Rainwise IP-100,2013-04-07 01:26:00,
2013-04-06 19:31:00,46.0,33.0,26.83,South,180,6.0,10.0,61,0.00,,,0.14,Rainwise IP-100,2013-04-07 01:31:00,
2013-04-06 19:36:00,46.0,33.0,26.83,South,180,4.0,7.0,62,0.00,,,0.14,Rainwise IP-100,2013-04-07 01:36:00,
2013-04-06 19:41:00,47.0,35.0,26.81,SSE,157,4.0,7.0,62,0.00,,,0.14,Rainwise IP-100,2013-04-07 01:41:00,
2013-04-06 19:46:00,46.0,33.0,26.81,SSW,202,2.0,9.0,62,0.00,,,0.14,Rainwise IP-100,2013-04-07 01:46:00,
2013-04-06 19:51:00,46.0,32.0,26.82,SSE,157,9.0,10.0,59,0.00,,,0.14,Rainwise IP-100,2013-04-07 01:51:00,
2013-04-06 19:56:00,46.0,33.0,26.82,SSE,157,4.0,9.0,61,0.00,,,0.14,Rainwise IP-100,2013-04-07 01:56:00,
2013-04-06 20:01:00,47.0,33.0,26.81,SSW,202,4.0,8.0,58,0.00,,,0.14,Rainwise IP-100,2013-04-07 02:01:00,
2013-04-06 20:06:00,46.0,32.0,26.81,South,180,4.0,6.0,59,0.00,,,0.14,Rainwise IP-100,2013-04-07 02:06:00,
2013-04-06 20:11:00,46.0,32.0,26.82,South,180,5.0,6.0,59,0.00,,,0.14,Rainwise IP-100,2013-04-07 02:11:00,
2013-04-06 20:16:00,46.0,33.0,26.82,South,180,6.0,6.0,60,0.00,,,0.14,Rainwise IP-100,2013-04-07 02:16:00,
2013-04-06 20:21:00,46.0,32.0,26.82,SSE,157,6.0,7.0,58,0.00,,,0.14,Rainwise IP-100,2013-04-07 02:21:00,
2013-04-06 20:26:00,46.0,33.0,26.82,SSE,157,0.0,6.0,60,0.00,,,0.14,Rainwise IP-100,2013-04-07 02:26:00,
2013-04-06 20:31:00,46.0,32.0,26.82,South,180,3.0,7.0,58,0.00,,,0.14,Rainwise IP-100,2013-04-07 02:31:00,
2013-04-06 20:36:00,46.0,32.0,26.82,SSE,157,6.0,8.0,58,0.00,,,0.14,Rainwise IP-100,2013-04-07 02:36:00,
2013-04-06 20:41:00,46.0,32.0,26.82,SSE,157,4.0,7.0,58,0.00,,,0.14,Rainwise IP-100,2013-04-07 02:41:00,
2013-04-06 20:46:00,46.0,32.0,26.82,SSE,157,5.0,6.0,59,0.00,,,0.14,Rainwise IP-100,2013-04-07 02:46:00,
2013-04-06 20:51:00,46.0,32.0,26.82,SSE,157,5.0,9.0,58,0.00,,,0.14,Rainwise IP-100,2013-04-07 02:51:00,
2013-04-06 20:56:00,46.0,32.0,26.82,South,180,6.0,6.0,58,0.00,,,0.14,Rainwise IP-100,2013-04-07 02:56:00,
2013-04-06 21:01:00,46.0,32.0,26.82,South,180,7.0,8.0,57,0.00,,,0.14,Rainwise IP-100,2013-04-07 03:01:00,
2013-04-06 21:06:00,46.0,32.0,26.82,South,180,3.0,7.0,58,0.00,,,0.14,Rainwise IP-100,2013-04-07 03:06:00,
2013-04-06 21:11:00,47.0,33.0,26.81,South,180,1.0,6.0,58,0.00,,,0.14,Rainwise IP-100,2013-04-07 03:11:00,
2013-04-06 21:16:00,46.0,33.0,26.81,WSW,247,3.0,4.0,60,0.00,,,0.14,Rainwise IP-100,2013-04-07 03:16:00,
2013-04-06 21:21:00,46.0,33.0,26.83,WSW,247,1.0,3.0,60,0.00,,,0.14,Rainwise IP-100,2013-04-07 03:21:00,
2013-04-06 21:26:00,46.0,33.0,26.83,South,180,6.0,6.0,62,0.00,,,0.14,Rainwise IP-100,2013-04-07 03:26:00,
2013-04-06 21:31:00,46.0,35.0,26.83,SSE,157,0.0,6.0,63,0.00,,,0.14,Rainwise IP-100,2013-04-07 03:31:00,
2013-04-06 21:36:00,45.0,33.0,26.83,SSW,202,1.0,4.0,64,0.00,,,0.14,Rainwise IP-100,2013-04-07 03:36:00,
2013-04-06 21:41:00,46.0,35.0,26.83,SW,225,3.0,5.0,64,0.00,,,0.14,Rainwise IP-100,2013-04-07 03:41:00,
2013-04-06 21:46:00,45.0,35.0,26.83,NW,315,4.0,5.0,65,0.00,,,0.14,Rainwise IP-100,2013-04-07 03:46:00,
2013-04-06 21:51:00,45.0,35.0,26.84,SW,225,4.0,8.0,68,0.00,,,0.14,Rainwise IP-100,2013-04-07 03:51:00,
2013-04-06 21:56:00,44.0,36.0,26.84,WSW,247,5.0,6.0,71,0.00,,,0.14,Rainwise IP-100,2013-04-07 03:56:00,
2013-04-06 22:00:00,44.0,35.0,26.84,WSW,247,4.0,6.0,70,0.00,,,0.14,Rainwise IP-100,2013-04-07 04:00:00,
2013-04-06 22:05:00,44.0,36.0,26.85,WSW,247,2.0,5.0,73,0.00,,,0.14,Rainwise IP-100,2013-04-07 04:05:00,
2013-04-06 22:09:00,44.0,36.0,26.85,WSW,247,4.0,9.0,74,0.00,,,0.15,Rainwise IP-100,2013-04-07 04:09:00,
2013-04-06 22:11:00,43.0,37.0,26.86,SW,225,1.0,9.0,77,0.06,,,0.15,Rainwise IP-100,2013-04-07 04:11:00,
2013-04-06 22:16:00,43.0,37.0,26.86,WSW,247,2.0,9.0,77,0.06,,,0.15,Rainwise IP-100,2013-04-07 04:16:00,
2013-04-06 22:22:00,42.0,36.0,26.86,West,270,1.0,7.0,77,0.00,,,0.15,Rainwise IP-100,2013-04-07 04:22:00,
2013-04-06 22:27:00,42.0,36.0,26.86,WNW,292,0.0,6.0,79,0.00,,,0.15,Rainwise IP-100,2013-04-07 04:27:00,
2013-04-06 22:31:00,42.0,36.0,26.86,WNW,292,0.0,1.0,78,0.00,,,0.15,Rainwise IP-100,2013-04-07 04:31:00,
2013-04-06 22:36:00,41.0,36.0,26.86,SSE,157,3.0,3.0,81,0.00,,,0.15,Rainwise IP-100,2013-04-07 04:36:00,
2013-04-06 22:41:00,41.0,37.0,26.87,South,180,3.0,4.0,84,0.00,,,0.15,Rainwise IP-100,2013-04-07 04:41:00,
2013-04-06 22:46:00,41.0,37.0,26.87,SSW,202,4.0,6.0,86,0.00,,,0.15,Rainwise IP-100,2013-04-07 04:46:00,
2013-04-06 22:51:00,41.0,37.0,26.86,SSW,202,1.0,4.0,86,0.00,,,0.15,Rainwise IP-100,2013-04-07 04:51:00,
2013-04-06 22:56:00,40.0,37.0,26.86,South,180,0.0,2.0,87,0.00,,,0.15,Rainwise IP-100,2013-04-07 04:56:00,
2013-04-06 23:02:00,40.0,37.0,26.86,SSW,202,1.0,3.0,87,0.00,,,0.15,Rainwise IP-100,2013-04-07 05:02:00,
2013-04-06 23:07:00,40.0,36.0,26.86,SSW,202,2.0,7.0,84,0.00,,,0.15,Rainwise IP-100,2013-04-07 05:07:00,
2013-04-06 23:12:00,41.0,36.0,26.85,SSW,202,2.0,5.0,82,0.00,,,0.15,Rainwise IP-100,2013-04-07 05:12:00,
2013-04-06 23:17:00,41.0,36.0,26.85,SW,225,2.0,5.0,80,0.00,,,0.15,Rainwise IP-100,2013-04-07 05:17:00,
2013-04-06 23:22:00,41.0,35.0,26.85,SW,225,0.0,7.0,76,0.00,,,0.15,Rainwise IP-100,2013-04-07 05:22:00,
2013-04-06 23:27:00,42.0,35.0,26.85,West,270,0.0,8.0,75,0.00,,,0.15,Rainwise IP-100,2013-04-07 05:27:00,
2013-04-06 23:32:00,42.0,35.0,26.84,WSW,247,4.0,6.0,74,0.00,,,0.15,Rainwise IP-100,2013-04-07 05:32:00,
2013-04-06 23:37:00,42.0,35.0,26.84,West,270,4.0,7.0,74,0.00,,,0.15,Rainwise IP-100,2013-04-07 05:37:00,
2013-04-06 23:42:00,42.0,35.0,26.83,WSW,247,3.0,6.0,73,0.00,,,0.15,Rainwise IP-100,2013-04-07 05:42:00,
2013-04-06 23:47:00,42.0,35.0,26.83,WSW,247,2.0,6.0,75,0.00,,,0.15,Rainwise IP-100,2013-04-07 05:47:00,
2013-04-06 23:52:00,41.0,35.0,26.83,SW,225,1.0,6.0,76,0.00,,,0.15,Rainwise IP-100,2013-04-07 05:52:00,
2013-04-06 23:57:00,41.0,35.0,26.83,WSW,247,3.0,7.0,76,0.00,,,0.15,Rainwise IP-100,2013-04-07 05:57:00,